EW6089 Weather Reports


time (UTC)temp
C
wind
direction
speed
KPH
gust
KPH
rain 1hr
cm
rain 24hr
cm
rain mn
cm
humidity
%
barometer
mb
20260505014018 24 0.0 1.6 0.00 0.00 0.00 44 1009.1
20260505013017 24 0.0 1.6 0.00 0.00 0.00 45 1009.1
20260505012017 25 0.0 1.6 0.00 0.00 0.00 41 1009.2
20260505011018 25 0.0 6.4 0.00 0.00 0.00 41 1009.3
20260505010018 25 0.0 6.4 0.00 0.00 0.00 41 1009.3
20260505005017 25 0.0 4.8 0.00 0.00 0.00 38 1009.3
20260505004017 25 0.0 6.4 0.00 0.00 0.00 39 1009.3
20260505003038 25 0.0 3.2 0.00 0.00 0.00 37 1009.3
20260505002018 26 68 1.6 8.0 0.00 0.00 0.00 38 1009.4
20260505001017 26 0.0 6.4 0.00 0.00 0.00 39 1009.4
20260505000017 26 158 1.6 12.9 0.00 0.00 0.00 39 1009.5
20260504235017 26 113 1.6 6.4 0.00 0.00 0.00 38 1009.5
20260504234017 26 135 1.6 6.4 0.00 0.00 0.00 38 1009.6
20260504233018 26 0.0 6.4 0.00 0.00 0.00 39 1009.5
20260504232037 26 90 1.6 6.4 0.00 0.00 0.00 39 1009.6
20260504231017 26 113 1.6 4.8 0.00 0.00 0.00 39 1009.6
20260504230037 26 113 1.6 8.0 0.00 0.00 0.00 41 1009.6
20260504225017 26 158 1.6 8.0 0.00 0.00 0.00 40 1009.7
20260504224037 26 158 1.6 8.0 0.00 0.00 0.00 38 1009.8
20260504223037 26 225 1.6 6.4 0.00 0.00 0.00 39 1009.9
20260504222037 26 158 1.6 12.9 0.00 0.00 0.00 39 1010.1
20260504221017 26 158 1.6 8.0 0.00 0.00 0.00 38 1010.2
20260504220017 26 45 1.6 12.9 0.00 0.00 0.00 39 1010.3
20260504215037 26 158 1.6 6.4 0.00 0.00 0.00 37 1010.3
20260504214016 26 158 1.6 8.0 0.00 0.00 0.00 38 1010.4
20260504213037 26 0.0 4.8 0.00 0.00 0.00 39 1010.3
20260504212017 26 45 1.6 8.0 0.00 0.00 0.00 38 1010.4
20260504211017 26 158 1.6 4.8 0.00 0.00 0.00 40 1010.3
20260504210017 26 158 1.6 6.4 0.00 0.00 0.00 39 1010.4
20260504205017 25 0.0 3.2 0.00 0.00 0.00 40 1010.5
20260504204017 25 68 3.2 8.0 0.00 0.00 0.00 40 1010.6
20260504203017 25 158 1.6 8.0 0.00 0.00 0.00 41 1010.6
20260504202016 25 135 1.6 8.0 0.00 0.00 0.00 41 1010.6
20260504201057 24 0.0 6.4 0.00 0.00 0.00 42 1010.7
20260504200037 24 0.0 4.8 0.00 0.00 0.00 42 1010.7
20260504195017 24 45 1.6 6.4 0.00 0.00 0.00 42 1010.6
20260504194016 23 0.0 3.2 0.00 0.00 0.00 44 1010.7
20260504193017 23 135 1.6 8.0 0.00 0.00 0.00 45 1010.9
20260504192017 23 158 1.6 6.4 0.00 0.00 0.00 44 1010.9
20260504191016 23 158 1.6 6.4 0.00 0.00 0.00 45 1011.0
20260504190017 23 113 1.6 8.0 0.00 0.00 0.00 44 1011.0
20260504185016 23 158 1.6 6.4 0.00 0.00 0.00 46 1011.1
20260504184017 23 158 1.6 4.8 0.00 0.00 0.00 46 1011.1
20260504183016 22 158 1.6 6.4 0.00 0.00 0.00 47 1011.1
20260504182016 22 135 1.6 6.4 0.00 0.00 0.00 48 1011.1
20260504181016 22 0.0 3.2 0.00 0.00 0.00 49 1011.1
20260504180017 22 158 1.6 4.8 0.00 0.00 0.00 48 1011.2
20260504175017 22 0.0 3.2 0.00 0.00 0.00 51 1011.1
20260504174016 21 158 1.6 4.8 0.00 0.00 0.00 50 1011.1
20260504173016 21 135 1.6 4.8 0.00 0.00 0.00 53 1011.1
20260504172017 21 0 1.6 4.8 0.00 0.00 0.00 52 1011.1
20260504171056 20 0.0 4.8 0.00 0.00 0.00 56 1011.1
20260504151017 13 0.0 0.0 0.00 0.00 0.00 83 1010.7
20260504141016 11 0.0 0.0 0.00 0.00 0.00 91 1010.4
20260504081016 13 0.0 0.0 0.00 0.00 0.00 83 1009.8
20260504050018 17 0.0 0.0 0.00 0.00 0.00 70 1009.8
20260504045017 17 0.0 0.0 0.00 0.00 0.00 71 1009.8
20260504044017 17 0.0 0.0 0.00 0.00 0.00 69 1009.7
20260504043017 18 0.0 0.0 0.00 0.00 0.00 69 1009.7
20260504042017 18 0.0 0.0 0.00 0.00 0.00 71 1009.7
20260504041017 18 0.0 0.0 0.00 0.00 0.00 69 1009.6
20260504040017 19 0.0 0.0 0.00 0.00 0.00 67 1009.5
20260504035017 20 0.0 0.0 0.00 0.00 0.00 67 1009.5
20260504034017 20 0.0 0.0 0.00 0.00 0.00 65 1009.4
20260504033017 20 0.0 0.0 0.00 0.00 0.00 65 1009.3
20260504032017 21 0.0 0.0 0.00 0.00 0.00 62 1009.2
20260504031017 21 0.0 1.6 0.00 0.00 0.00 59 1009.2
20260504030017 22 0.0 1.6 0.00 0.00 0.00 57 1009.2
20260504025017 22 0.0 3.2 0.00 0.00 0.00 57 1009.2
20260504024017 23 158 1.6 4.8 0.00 0.00 0.00 55 1009.2
20260504023017 23 158 1.6 4.8 0.00 0.00 0.00 53 1009.1
20260504022057 24 158 1.6 4.8 0.00 0.00 0.00 52 1009.2
20260504021017 24 158 1.6 4.8 0.00 0.00 0.00 50 1009.2
20260504020017 25 158 1.6 4.8 0.00 0.00 0.00 50 1009.2
20260504015017 25 158 1.6 4.8 0.00 0.00 0.00 47 1009.2